Flag for Brazil Weather past 2 weeks in Recife, Pernambuco, Brazil

Now
79 °F

Broken clouds.


Feels Like: 82 °F
Forecast: N/A
Wind: 9 mph from East

Location: Recife Aeroporto

Current Time: Aug 27, 2014 at 5:58:03 PM

Latest Report: Aug 27, 2014 at 5:00 PM


Visibility: N/A

Pressure: 29.95 "Hg

Humidity: 79%

Dew point: 72 °F

Location of RecifeLocation

Historic Weather in Recife — Graph

°F

Recife temperature yesterday

Maximum temperature yesterday: 82 °F (at 10:00 AM)
Minimum temperature yesterday: 75 °F (at 6:00 PM)
Average temperature yesterday: 79 °F

Past Weeks' High & Low Weather Summary

 TemperatureHumidityPressure
High82 °F (Aug 13, 10:00 AM)100% (Aug 13, 6:00 AM)30.09 "Hg (Aug 13, 6:00 AM)
Low68 °F (Aug 19, 6:00 AM)62% (Aug 15, 9:00 AM)29.95 "Hg (Aug 13, 3:00 PM)
Average76 °F80%30.02 "Hg
* Reported Aug 12 5:00 PM — Aug 27 5:00 PM, Recife, Weather by CustomWeather, © 2014

Note: Actual official high and low records may vary slightly from our data, if they occured in-between our weather recording intervals... More about our weather records

Advertising

Recife weather history for previous 24 hours

 ConditionsComfort  
Time TempWeatherWind HumidityBarometerVisibility
5:00 PM
Aug 27
79 °FBroken clouds.9 mph79%29.95 "HgN/A
4:00 PM79 °FScattered clouds.10 mph79%29.95 "HgN/A
3:00 PM82 °FScattered clouds.10 mph70%29.95 "HgN/A
2:00 PM82 °FScattered clouds.14 mph74%29.95 "HgN/A
1:00 PM82 °FScattered clouds.13 mph70%29.95 "HgN/A
12:00 PM82 °FPassing clouds.13 mph70%29.98 "HgN/A
11:00 AM82 °FPassing clouds.14 mph70%30.01 "HgN/A
10:00 AM82 °FPassing clouds.10 mph66%30.01 "HgN/A
9:00 AM82 °FScattered clouds.10 mph70%30.01 "HgN/A
8:00 AM81 °FPartly sunny.12 mph74%30.01 "HgN/A
7:00 AM79 °FBroken clouds.10 mph79%29.98 "HgN/A
6:00 AM77 °FScattered showers. Partly sunny.8 mph83%29.98 "HgN/A
5:00 AM75 °FScattered showers. Partly cloudy.6 mph89%29.95 "HgN/A
4:00 AM75 °FPassing clouds.10 mph83%29.95 "HgN/A
3:00 AM77 °FPassing clouds.6 mph79%29.98 "HgN/A
2:00 AM77 °FPassing clouds.9 mph79%29.98 "HgN/A
1:00 AM77 °FPassing clouds.7 mph79%30.01 "HgN/A
12:00 AM77 °FPassing clouds.8 mph79%30.01 "HgN/A
11:00 PM
Aug 26
77 °FPassing clouds.8 mph79%30.04 "HgN/A
10:00 PM77 °FPassing clouds.7 mph79%30.04 "HgN/A
9:00 PM77 °FPassing clouds.7 mph79%30.04 "HgN/A
8:00 PM79 °FPassing clouds.8 mph74%30.01 "HgN/A
7:00 PM77 °FPassing clouds.8 mph83%30.01 "HgN/A
6:10 PM75 °FScattered showers. Passing clouds.3 mph89%29.98 "HgN/A
6:00 PM75 °FRain. Passing clouds.5 mph89%29.98 "Hg2 mi
5:00 PM77 °FScattered clouds.8 mph79%29.98 "HgN/A
Weather by CustomWeather, © 2014

See weather overviewHow to use our weather pages